This demonstration page uses our WeatherBlox Daily Observations layout. Learn more.

Left ArrowRight Arrow

Hourly Observations for July 18, 2018

Temp ( °F °C ) Dew Point ( °F °C ) Humidity (%) Winds ( mph kmh ) Pressure ( in mb ) Visibility ( mi km ) Precip ( " mm )
12:44 am 00:44 Mostly Cloudy 75 23.9 72 22.2 90 90 WSW 7 11 29.88 1012 10 16 0.00 0.00
12:59 am 00:59 Mostly Cloudy 75 23.9 72 22.2 90 90 W 6 9 29.88 1012 10 16 0.00 0.00
1:59 am 01:59 Mostly Cloudy 76 24.4 72 22.2 88 88 W 7 11 29.86 1011 10 16 0.00 0.00
2:59 am 02:59 Mostly Cloudy 77 25 71 21.7 82 82 W 8 13 29.85 1011 10 16 0.00 0.00
3:59 am 03:59 Partly Cloudy 76 24.4 71 21.7 85 85 WNW 14 22 29.85 1011 10 16 0.00 0.00
4:59 am 04:59 Partly Cloudy 76 24.4 71 21.7 85 85 NW 8 13 29.87 1011 10 16 0.00 0.00
5:59 am 05:59 Mostly Cloudy 76 24.4 70 21.1 82 82 NW 9 15 29.89 1012 10 16 0.00 0.00
6:59 am 06:59 Partly Cloudy 76 24.4 70 21.1 82 82 N 8 13 29.91 1013 10 16 0.00 0.00
7:59 am 07:59 Mostly Cloudy 77 25 69 20.6 77 77 N 14 22 29.93 1014 9 14 0.00 0.00
8:59 am 08:59 Mostly Cloudy 79 26.1 69 20.6 72 72 N 12 19 29.94 1014 10 16 0.00 0.00
9:59 am 09:59 Mostly Cloudy 81 27.2 70 21.1 69 69 N 10 17 29.94 1014 10 16 0.00 0.00
10:59 am 10:59 Mostly Cloudy 82 27.8 66 18.9 58 58 NNE 15 24 29.94 1014 10 16 0.00 0.00
11:59 am 11:59 Partly Cloudy 81 27.2 66 18.9 61 61 NNE 12 19 29.95 1014 10 16 0.00 0.00
12:59 pm 12:59 Partly Cloudy 83 28.3 66 18.9 57 57 N 12 19 29.94 1014 10 16 0.00 0.00
1:59 pm 13:59 Partly Cloudy 82 27.8 65 18.3 56 56 NE 14 22 29.94 1014 10 16 0.00 0.00
2:59 pm 14:59 Partly Cloudy 83 28.3 64 17.8 53 53 NE 10 17 29.94 1014 10 16 0.00 0.00
3:59 pm 15:59 Partly Cloudy 84 28.9 63 17.2 49 49 ENE 7 11 29.94 1014 10 16 0.00 0.00
4:59 pm 16:59 Partly Cloudy 84 28.9 63 17.2 49 49 ENE 9 15 29.93 1014 10 16 0.00 0.00
5:59 pm 17:59 Partly Cloudy 83 28.3 59 15 44 44 NE 10 17 29.93 1014 10 16 0.00 0.00
6:59 pm 18:59 Partly Cloudy 81 27.2 61 16.1 51 51 NE 9 15 29.95 1014 10 16 0.00 0.00
7:59 pm 19:59 Partly Cloudy 81 27.2 58 14.4 45 45 NE 6 9 29.96 1014 10 16 0.00 0.00
8:59 pm 20:59 Partly Cloudy 73 22.8 60 15.6 64 64 Calm 29.96 1014 10 16 0.00 0.00
9:59 pm 21:59 Mostly Clear 71 21.7 59 15 66 66 Calm 29.97 1015 10 16 0.00 0.00
10:59 pm 22:59 Mostly Clear 71 21.7 60 15.6 68 68 Calm 29.99 1016 10 16 0.00 0.00
11:59 pm 23:59 Mostly Clear 68 20 61 16.1 78 78 Calm 29.99 1016 10 16 0.00 0.00

Powered by AerisWeather